EDW348 LSZH-LGIR

Flight info

Callsign EDW348
Flight time 2h 25m
Altitude 35000
Route DEGES Z2 XEBIX L607 ELMEM N606 GIRIS DCT NIVAS DCT PEVAL DCT NERRA DCT PETAK DCT PINDO DCT KEA UL607 GIVIS T514 XAVIS
Aircraft A320/M-SDE3FGHIRWY/LB1

Departure

Time 2026-05-05 16:19
Airport Zürich Airport (LSZH)

Arrival

Time 2026-05-05 18:44
Airport Heraklion International Nikos Kazantzakis Airport (LGIR)
Time Latitude Longitude Altitude Speed Heading
2026-05-05 15:54 47.45048 8.55858 1397 ft 0 kts
2026-05-05 16:07 47.45036 8.55856 1406 ft 4 kts
2026-05-05 16:08 47.45009 8.55854 1403 ft 4 kts
2026-05-05 16:08 47.44982 8.55854 1403 ft 4 kts 353°
2026-05-05 16:08 47.44956 8.55863 1407 ft 4 kts 321°
2026-05-05 16:08 47.44948 8.55878 1405 ft 0 kts 278°
2026-05-05 16:10 47.44948 8.55874 1405 ft 2 kts 278°
2026-05-05 16:10 47.44956 8.55821 1405 ft 8 kts 289°
2026-05-05 16:11 47.45004 8.55740 1397 ft 13 kts 327°
2026-05-05 16:11 47.45300 8.55557 1398 ft 17 kts 340°
2026-05-05 16:12 47.45408 8.55485 1399 ft 18 kts 334°
2026-05-05 16:12 47.45636 8.55345 1399 ft 17 kts
2026-05-05 16:13 47.45649 8.55734 1401 ft 11 kts 98°
2026-05-05 16:13 47.45639 8.55845 1397 ft 11 kts 96°
2026-05-05 16:13 47.45628 8.56016 1397 ft 22 kts 95°
2026-05-05 16:14 47.45598 8.56463 1400 ft 20 kts 95°
2026-05-05 16:14 47.45570 8.56812 1397 ft 15 kts 96°
2026-05-05 16:15 47.45577 8.57004 1406 ft 0 kts 46°
2026-05-05 16:17 47.45580 8.57006 1403 ft 1 kts 33°
2026-05-05 16:18 47.45655 8.57007 1400 ft 7 kts 317°
2026-05-05 16:18 47.45671 8.56938 1398 ft 0 kts 279°
2026-05-05 16:18 47.45673 8.56914 1399 ft 14 kts 277°
2026-05-05 16:19 47.45707 8.56378 1403 ft 86 kts 276°
2026-05-05 16:19 47.45790 8.55194 1399 ft 141 kts 275°
2026-05-05 16:19 47.46004 8.52427 2495 ft 135 kts 275°
2026-05-05 16:20 47.46219 8.49261 2839 ft 182 kts 274°
2026-05-05 16:20 47.45058 8.45701 3554 ft 215 kts 225°
2026-05-05 16:21 47.43459 8.42036 4882 ft 219 kts 251°
2026-05-05 16:22 47.41131 8.36618 6051 ft 223 kts 193°
2026-05-05 16:22 47.38434 8.38368 7331 ft 236 kts 119°
2026-05-05 16:23 47.38951 8.42999 8485 ft 252 kts 48°
2026-05-05 16:23 47.40215 8.44775 9077 ft 256 kts 40°
2026-05-05 16:23 47.42741 8.48676 9937 ft 278 kts 52°
2026-05-05 16:24 47.43976 8.51012 10164 ft 300 kts 54°
2026-05-05 16:24 47.45162 8.53691 10331 ft 322 kts 67°
2026-05-05 16:24 47.45955 8.60552 10621 ft 362 kts 90°
2026-05-05 16:25 47.46071 8.64378 10838 ft 380 kts 89°
2026-05-05 16:25 47.46334 8.72310 11958 ft 390 kts 89°
2026-05-05 16:25 47.46485 8.76336 12560 ft 394 kts 89°
2026-05-05 16:26 47.46404 8.84441 13727 ft 400 kts 102°
2026-05-05 16:26 47.45234 8.92538 14803 ft 405 kts 104°
2026-05-05 16:27 47.44637 8.96633 15340 ft 409 kts 104°
2026-05-05 16:27 47.44042 9.00763 15863 ft 412 kts 104°
2026-05-05 16:27 47.43448 9.04920 16393 ft 415 kts 104°
2026-05-05 16:27 47.42857 9.09060 16899 ft 418 kts 104°
2026-05-05 16:28 47.42253 9.13284 17398 ft 422 kts 104°
2026-05-05 16:28 47.41760 9.17548 17896 ft 427 kts 97°
2026-05-05 16:28 47.41726 9.21960 18342 ft 434 kts 88°
2026-05-05 16:28 47.42195 9.26383 18753 ft 439 kts 79°
2026-05-05 16:29 47.42873 9.30806 19184 ft 441 kts 79°
2026-05-05 16:29 47.43548 9.35247 19612 ft 444 kts 79°
2026-05-05 16:29 47.44224 9.39718 20030 ft 446 kts 79°
2026-05-05 16:29 47.44894 9.44161 20419 ft 449 kts 79°
2026-05-05 16:30 47.45571 9.48668 20818 ft 450 kts 79°
2026-05-05 16:30 47.46250 9.53215 21195 ft 453 kts 79°
2026-05-05 16:30 47.46876 9.57790 21552 ft 454 kts 84°
2026-05-05 16:30 47.47093 9.62449 21902 ft 454 kts 93°
2026-05-05 16:31 47.46893 9.67109 22243 ft 454 kts 97°
2026-05-05 16:31 47.46635 9.71778 22585 ft 457 kts 97°
2026-05-05 16:31 47.46377 9.76461 22922 ft 459 kts 97°
2026-05-05 16:31 47.46117 9.81176 23257 ft 461 kts 97°
2026-05-05 16:32 47.45854 9.85918 23554 ft 463 kts 97°
2026-05-05 16:32 47.45593 9.90619 23810 ft 465 kts 97°
2026-05-05 16:32 47.45326 9.95391 24100 ft 467 kts 97°
2026-05-05 16:32 47.45056 10.00179 24370 ft 469 kts 97°
2026-05-05 16:33 47.44782 10.04991 24637 ft 470 kts 97°
2026-05-05 16:33 47.44501 10.09822 24890 ft 472 kts 97°
2026-05-05 16:33 47.44217 10.14657 25130 ft 473 kts 97°
2026-05-05 16:34 47.43919 10.18733 25313 ft 473 kts 102°
2026-05-05 16:34 47.43294 10.23507 25559 ft 474 kts 104°
2026-05-05 16:34 47.42649 10.28286 25792 ft 475 kts 104°
2026-05-05 16:34 47.42001 10.33094 25983 ft 477 kts 104°
2026-05-05 16:35 47.41238 10.37866 26193 ft 477 kts 110°
2026-05-05 16:35 47.39998 10.42313 26405 ft 474 kts 120°
2026-05-05 16:35 47.38256 10.46421 26637 ft 470 kts 130°
2026-05-05 16:35 47.36059 10.50042 26912 ft 465 kts 140°
2026-05-05 16:36 47.33575 10.52958 27163 ft 461 kts 150°
2026-05-05 16:36 47.30796 10.55297 27441 ft 458 kts 155°
2026-05-05 16:36 47.27974 10.57514 27753 ft 458 kts 155°
2026-05-05 16:36 47.25159 10.59740 28072 ft 458 kts 154°
2026-05-05 16:37 47.22387 10.61940 28395 ft 457 kts 155°
2026-05-05 16:37 47.19585 10.64166 28712 ft 456 kts 155°
2026-05-05 16:37 47.16761 10.66289 29029 ft 454 kts 160°
2026-05-05 16:37 47.13820 10.67959 29327 ft 452 kts 162°
2026-05-05 16:38 47.10873 10.69571 29622 ft 451 kts 162°
2026-05-05 16:38 47.07927 10.71180 29931 ft 451 kts 163°
2026-05-05 16:38 47.04988 10.72782 30201 ft 450 kts 163°
2026-05-05 16:38 47.02059 10.74383 30431 ft 449 kts 162°
2026-05-05 16:39 46.99134 10.76006 30720 ft 448 kts 162°
2026-05-05 16:39 46.96265 10.77629 30997 ft 447 kts 162°
2026-05-05 16:39 46.93359 10.79283 31276 ft 446 kts 162°
2026-05-05 16:39 46.90470 10.80929 31518 ft 445 kts 162°
2026-05-05 16:40 46.87578 10.82571 31759 ft 445 kts 162°
2026-05-05 16:40 46.85658 10.83656 31930 ft 444 kts 162°
2026-05-05 16:40 46.81832 10.85804 32283 ft 444 kts 162°
2026-05-05 16:40 46.79016 10.87692 32536 ft 447 kts 153°
2026-05-05 16:41 46.77269 10.89308 32698 ft 449 kts 147°
2026-05-05 16:41 46.74869 10.92269 32934 ft 453 kts 138°
2026-05-05 16:41 46.72747 10.95692 33176 ft 455 kts 135°
2026-05-05 16:41 46.69966 11.00277 33508 ft 454 kts 135°
2026-05-05 16:42 46.68548 11.02603 33662 ft 454 kts 135°
2026-05-05 16:42 46.66445 11.06036 33890 ft 454 kts 135°
2026-05-05 16:42 46.64338 11.09463 34098 ft 454 kts 135°
2026-05-05 16:42 46.62255 11.12847 34275 ft 454 kts 135°
2026-05-05 16:43 46.60149 11.16270 34442 ft 454 kts 135°
2026-05-05 16:43 46.58040 11.19698 34622 ft 454 kts 135°
2026-05-05 16:43 46.55929 11.23132 34797 ft 455 kts 135°
2026-05-05 16:43 46.53820 11.26559 34938 ft 455 kts 135°
2026-05-05 16:44 46.49562 11.33464 34974 ft 459 kts 135°
2026-05-05 16:44 46.45302 11.40344 34970 ft 460 kts 135°
2026-05-05 16:45 46.41008 11.47247 34972 ft 460 kts 135°
2026-05-05 16:45 46.36979 11.53721 34976 ft 461 kts 135°
2026-05-05 16:46 46.32706 11.60574 34977 ft 461 kts 135°
2026-05-05 16:46 46.28399 11.67468 34977 ft 461 kts 135°
2026-05-05 16:47 46.24081 11.74361 34988 ft 461 kts 135°
2026-05-05 16:47 46.19758 11.81242 35000 ft 462 kts 135°
2026-05-05 16:48 46.15454 11.88077 35004 ft 462 kts 135°
2026-05-05 16:48 46.11121 11.94936 35009 ft 462 kts 135°
2026-05-05 16:49 46.06784 12.01790 35014 ft 462 kts 135°
2026-05-05 16:49 46.02434 12.08651 35013 ft 462 kts 135°
2026-05-05 16:50 45.98110 12.15443 35018 ft 463 kts 135°
2026-05-05 16:50 45.93849 12.22104 35016 ft 463 kts 135°
2026-05-05 16:51 45.89486 12.28921 35007 ft 463 kts 135°
2026-05-05 16:51 45.85227 12.35889 35001 ft 465 kts 133°
2026-05-05 16:52 45.81068 12.42943 35004 ft 465 kts 133°
2026-05-05 16:52 45.76874 12.49997 35001 ft 465 kts 133°
2026-05-05 16:53 45.72643 12.57009 35001 ft 464 kts 133°
2026-05-05 16:53 45.68403 12.63983 34999 ft 464 kts 133°
2026-05-05 16:54 45.64155 12.70955 34999 ft 464 kts 133°
2026-05-05 16:54 45.59943 12.77877 34997 ft 464 kts 133°
2026-05-05 16:55 45.55694 12.84853 34990 ft 464 kts 133°
2026-05-05 16:55 45.51440 12.91806 34990 ft 464 kts 133°
2026-05-05 16:56 45.47215 12.98698 34987 ft 464 kts 133°
2026-05-05 16:56 45.42964 13.05617 34983 ft 463 kts 133°
2026-05-05 16:57 45.38708 13.12514 34998 ft 463 kts 134°
2026-05-05 16:57 45.34504 13.19314 34999 ft 464 kts 134°
2026-05-05 16:58 45.30246 13.26222 35005 ft 464 kts 132°
2026-05-05 16:58 45.26325 13.33476 34994 ft 466 kts 128°
2026-05-05 16:59 45.22589 13.41006 35008 ft 466 kts 127°
2026-05-05 16:59 45.18809 13.48475 35010 ft 465 kts 128°
2026-05-05 17:00 45.14973 13.55792 35012 ft 465 kts 129°
2026-05-05 17:00 45.11099 13.63078 35014 ft 465 kts 129°
2026-05-05 17:01 45.07225 13.70399 35019 ft 464 kts 129°
2026-05-05 17:01 45.03362 13.77724 35026 ft 464 kts 129°
2026-05-05 17:02 44.99490 13.85043 35027 ft 464 kts 129°
2026-05-05 17:02 44.95627 13.92317 35030 ft 465 kts 129°
2026-05-05 17:03 44.91723 13.99636 35026 ft 466 kts 129°
2026-05-05 17:03 44.87826 14.06954 35025 ft 466 kts 129°
2026-05-05 17:04 44.83918 14.14251 35021 ft 466 kts 129°
2026-05-05 17:04 44.80027 14.21495 35021 ft 467 kts 129°
2026-05-05 17:05 44.76098 14.28790 35017 ft 467 kts 129°
2026-05-05 17:05 44.72182 14.36045 35001 ft 467 kts 129°
2026-05-05 17:06 44.68246 14.43339 35012 ft 468 kts 129°
2026-05-05 17:06 44.64300 14.50636 35015 ft 468 kts 129°
2026-05-05 17:07 44.60342 14.57907 35018 ft 469 kts 129°
2026-05-05 17:07 44.56366 14.65198 35010 ft 470 kts 129°
2026-05-05 17:08 44.52402 14.72460 35024 ft 471 kts 129°
2026-05-05 17:08 44.48398 14.79762 35018 ft 472 kts 129°
2026-05-05 17:09 44.44420 14.87020 35015 ft 473 kts 129°
2026-05-05 17:09 44.40412 14.94320 35033 ft 473 kts 129°
2026-05-05 17:10 44.36384 15.01617 35034 ft 474 kts 129°
2026-05-05 17:10 44.32339 15.08913 35036 ft 474 kts 129°
2026-05-05 17:11 44.28295 15.16204 35060 ft 476 kts 131°
2026-05-05 17:11 44.24251 15.23483 35038 ft 477 kts 131°
2026-05-05 17:12 44.20168 15.30813 35033 ft 479 kts 131°
2026-05-05 17:12 44.16069 15.38151 35033 ft 479 kts 131°
2026-05-05 17:13 44.11963 15.45485 35034 ft 480 kts 131°
2026-05-05 17:13 44.07864 15.52776 35036 ft 480 kts 131°
2026-05-05 17:14 44.03735 15.60117 35038 ft 481 kts 131°
2026-05-05 17:14 43.99607 15.67440 35042 ft 481 kts 131°
2026-05-05 17:15 43.95493 15.74709 35041 ft 481 kts 131°
2026-05-05 17:15 43.91341 15.82018 35048 ft 482 kts 131°
2026-05-05 17:16 43.87180 15.89313 35048 ft 482 kts 131°
2026-05-05 17:16 43.83017 15.96615 35043 ft 482 kts 131°
2026-05-05 17:17 43.78880 16.03877 35050 ft 482 kts 131°
2026-05-05 17:17 43.74715 16.11165 35054 ft 482 kts 131°
2026-05-05 17:18 43.70534 16.18438 35043 ft 482 kts 131°
2026-05-05 17:18 43.66354 16.25689 35055 ft 482 kts 131°
2026-05-05 17:19 43.62178 16.32903 35040 ft 483 kts 131°
2026-05-05 17:19 43.57987 16.40140 35052 ft 483 kts 131°
2026-05-05 17:20 43.53786 16.47393 35047 ft 483 kts 131°
2026-05-05 17:20 43.49606 16.54590 35044 ft 483 kts 131°
2026-05-05 17:21 43.45386 16.61830 35038 ft 483 kts 131°
2026-05-05 17:22 43.39772 16.71428 35045 ft 484 kts 131°
2026-05-05 17:22 43.35546 16.78633 35048 ft 484 kts 131°
2026-05-05 17:23 43.31316 16.85842 35043 ft 484 kts 131°
2026-05-05 17:23 43.27093 16.92994 35052 ft 484 kts 131°
2026-05-05 17:24 43.22841 17.00181 35048 ft 485 kts 131°
2026-05-05 17:24 43.18585 17.07371 35047 ft 485 kts 131°
2026-05-05 17:25 43.14325 17.14552 35049 ft 485 kts 131°
2026-05-05 17:25 43.10049 17.21730 35054 ft 485 kts 131°
2026-05-05 17:26 43.05799 17.28851 35051 ft 486 kts 131°
2026-05-05 17:26 43.01516 17.36024 35051 ft 486 kts 131°
2026-05-05 17:27 42.97223 17.43200 35049 ft 486 kts 132°
2026-05-05 17:27 42.92955 17.50292 35049 ft 486 kts 132°
2026-05-05 17:28 42.88636 17.57418 35052 ft 487 kts 132°
2026-05-05 17:28 42.84259 17.64476 35054 ft 487 kts 133°
2026-05-05 17:29 42.79858 17.71502 35052 ft 487 kts 133°
2026-05-05 17:29 42.75452 17.78556 35055 ft 488 kts 133°
2026-05-05 17:30 42.71073 17.85560 35056 ft 488 kts 133°
2026-05-05 17:30 42.66661 17.92606 35067 ft 489 kts 133°
2026-05-05 17:31 42.62250 17.99645 35074 ft 489 kts 133°
2026-05-05 17:31 42.57820 18.06683 35082 ft 490 kts 133°
2026-05-05 17:32 42.53409 18.13662 35090 ft 490 kts 133°
2026-05-05 17:32 42.48955 18.20698 35089 ft 491 kts 133°
2026-05-05 17:33 42.44494 18.27728 35089 ft 491 kts 133°
2026-05-05 17:33 42.40063 18.34708 35083 ft 492 kts 133°
2026-05-05 17:34 42.35589 18.41739 35078 ft 492 kts 133°
2026-05-05 17:34 42.31098 18.48766 35063 ft 493 kts 133°
2026-05-05 17:35 42.26614 18.55774 35064 ft 493 kts 133°
2026-05-05 17:35 42.22147 18.62738 35062 ft 494 kts 133°
2026-05-05 17:36 42.17623 18.69752 35061 ft 494 kts 133°
2026-05-05 17:36 42.13113 18.76757 35061 ft 495 kts 133°
2026-05-05 17:37 42.08578 18.83786 35060 ft 496 kts 133°
2026-05-05 17:37 42.04069 18.90747 35056 ft 496 kts 133°
2026-05-05 17:38 41.99518 18.97749 35060 ft 497 kts 133°
2026-05-05 17:38 41.94988 19.04697 35062 ft 498 kts 133°
2026-05-05 17:39 41.90424 19.11693 35067 ft 498 kts 133°
2026-05-05 17:39 41.85844 19.18702 35066 ft 499 kts 133°
2026-05-05 17:40 41.81258 19.25696 35070 ft 500 kts 133°
2026-05-05 17:40 41.76630 19.32669 35072 ft 500 kts 135°
2026-05-05 17:41 41.71757 19.39250 35075 ft 499 kts 139°
2026-05-05 17:41 41.66676 19.45631 35077 ft 500 kts 140°
2026-05-05 17:42 41.61615 19.52031 35081 ft 501 kts 139°
2026-05-05 17:42 41.56597 19.58522 35083 ft 502 kts 138°
2026-05-05 17:43 41.51619 19.65001 35085 ft 503 kts 138°
2026-05-05 17:43 41.46587 19.71509 35088 ft 504 kts 139°
2026-05-05 17:44 41.41525 19.78010 35090 ft 504 kts 138°
2026-05-05 17:44 41.36463 19.84496 35093 ft 505 kts 139°
2026-05-05 17:45 41.31421 19.90946 35090 ft 506 kts 139°
2026-05-05 17:45 41.26329 19.97446 35091 ft 506 kts 139°
2026-05-05 17:46 41.21265 20.03905 35095 ft 507 kts 138°
2026-05-05 17:46 41.16162 20.10397 35098 ft 507 kts 139°
2026-05-05 17:47 41.11046 20.16889 35101 ft 508 kts 138°
2026-05-05 17:47 41.05937 20.23364 35100 ft 508 kts 138°
2026-05-05 17:48 41.00810 20.29843 35101 ft 509 kts 138°
2026-05-05 17:48 40.95701 20.36277 35096 ft 510 kts 138°
2026-05-05 17:49 40.90550 20.42740 35099 ft 510 kts 138°
2026-05-05 17:49 40.85390 20.49210 35102 ft 511 kts 138°
2026-05-05 17:50 40.80217 20.55683 35099 ft 511 kts 138°
2026-05-05 17:50 40.75041 20.62144 35101 ft 512 kts 138°
2026-05-05 17:51 40.69905 20.68565 35098 ft 512 kts 138°
2026-05-05 17:51 40.64713 20.75034 35095 ft 512 kts 138°
2026-05-05 17:52 40.59507 20.81475 35096 ft 513 kts 138°
2026-05-05 17:52 40.54329 20.87862 35094 ft 513 kts 138°
2026-05-05 17:53 40.49115 20.94301 35095 ft 513 kts 138°
2026-05-05 17:53 40.43888 21.00699 35086 ft 514 kts 139°
2026-05-05 17:54 40.38610 21.07061 35085 ft 514 kts 139°
2026-05-05 17:54 40.33362 21.13359 35081 ft 514 kts 139°
2026-05-05 17:55 40.28074 21.19713 35077 ft 515 kts 139°
2026-05-05 17:55 40.22793 21.26080 35075 ft 515 kts 139°
2026-05-05 17:56 40.17499 21.32420 35077 ft 516 kts 139°
2026-05-05 17:56 40.12191 21.38760 35074 ft 516 kts 139°
2026-05-05 17:57 40.06918 21.45056 35074 ft 517 kts 139°
2026-05-05 17:57 40.01597 21.51392 35073 ft 517 kts 139°
2026-05-05 17:58 39.96267 21.57728 35070 ft 517 kts 139°
2026-05-05 17:58 39.90960 21.64012 35064 ft 518 kts 139°
2026-05-05 17:59 39.85615 21.70320 35060 ft 518 kts 139°
2026-05-05 17:59 39.80262 21.76635 35046 ft 519 kts 139°
2026-05-05 18:00 39.74934 21.82904 35042 ft 519 kts 138°
2026-05-05 18:00 39.69570 21.89217 35032 ft 520 kts 138°
2026-05-05 18:01 39.65105 21.94469 35025 ft 520 kts 138°
2026-05-05 18:01 39.59721 22.00767 35023 ft 521 kts 139°
2026-05-05 18:02 39.54325 22.07053 35028 ft 521 kts 139°
2026-05-05 18:02 39.48965 22.13285 35024 ft 521 kts 139°
2026-05-05 18:03 39.43554 22.19578 35025 ft 521 kts 139°
2026-05-05 18:03 39.38145 22.25854 35031 ft 522 kts 138°
2026-05-05 18:04 39.32778 22.32094 35031 ft 522 kts 139°
2026-05-05 18:04 39.27359 22.38349 35035 ft 522 kts 139°
2026-05-05 18:05 39.21923 22.44599 35032 ft 523 kts 139°
2026-05-05 18:05 39.16479 22.50845 35029 ft 523 kts 139°
2026-05-05 18:06 39.11048 22.57092 35033 ft 523 kts 139°
2026-05-05 18:06 39.05641 22.63273 35036 ft 523 kts 139°
2026-05-05 18:07 39.00180 22.69496 35037 ft 523 kts 139°
2026-05-05 18:07 38.94710 22.75721 35042 ft 523 kts 139°
2026-05-05 18:08 38.89291 22.81896 35046 ft 524 kts 139°
2026-05-05 18:08 38.83823 22.88098 35050 ft 524 kts 139°
2026-05-05 18:09 38.78351 22.94304 35048 ft 525 kts 139°
2026-05-05 18:09 38.72872 23.00512 35053 ft 525 kts 139°
2026-05-05 18:10 38.67376 23.06709 35050 ft 525 kts 139°
2026-05-05 18:10 38.61917 23.12855 35056 ft 526 kts 139°
2026-05-05 18:11 38.56416 23.19022 35057 ft 526 kts 139°
2026-05-05 18:11 38.50887 23.25206 35056 ft 526 kts 139°
2026-05-05 18:12 38.45403 23.31342 35064 ft 526 kts 139°
2026-05-05 18:12 38.39880 23.37505 35069 ft 527 kts 139°
2026-05-05 18:13 38.34361 23.43661 35067 ft 527 kts 138°
2026-05-05 18:13 38.28864 23.49778 35067 ft 527 kts 139°
2026-05-05 18:14 38.23329 23.55907 35064 ft 527 kts 139°
2026-05-05 18:14 38.17784 23.62038 35057 ft 527 kts 138°
2026-05-05 18:15 38.12247 23.68155 35054 ft 527 kts 138°
2026-05-05 18:15 38.06704 23.74270 35063 ft 527 kts 138°
2026-05-05 18:16 38.01193 23.80338 35088 ft 527 kts 138°
2026-05-05 18:16 37.95641 23.86427 35086 ft 526 kts 138°
2026-05-05 18:17 37.90099 23.92486 35088 ft 526 kts 138°
2026-05-05 18:17 37.84548 23.98543 35092 ft 526 kts 139°
2026-05-05 18:18 37.78951 24.04503 35090 ft 525 kts 146°
2026-05-05 18:18 37.72515 24.08699 35088 ft 523 kts 156°
2026-05-05 18:19 37.65924 24.12599 35082 ft 523 kts 156°
2026-05-05 18:19 37.59317 24.16478 35082 ft 522 kts 156°
2026-05-05 18:20 37.52768 24.20330 35081 ft 522 kts 156°
2026-05-05 18:20 37.46187 24.24207 35082 ft 522 kts 156°
2026-05-05 18:21 37.39593 24.28086 35079 ft 522 kts 156°
2026-05-05 18:21 37.33015 24.31935 35079 ft 522 kts 156°
2026-05-05 18:22 37.26416 24.35788 35076 ft 521 kts 156°
2026-05-05 18:22 37.19831 24.39637 35078 ft 521 kts 156°
2026-05-05 18:23 37.13292 24.43443 35078 ft 521 kts 156°
2026-05-05 18:23 37.06711 24.47269 35083 ft 520 kts 156°
2026-05-05 18:24 37.00143 24.51078 35080 ft 519 kts 156°
2026-05-05 18:24 36.93612 24.54857 35082 ft 519 kts 156°
2026-05-05 18:25 36.87043 24.58653 35082 ft 518 kts 156°
2026-05-05 18:25 36.80492 24.62440 35087 ft 518 kts 156°
2026-05-05 18:26 36.73989 24.66198 35037 ft 518 kts 156°
2026-05-05 18:26 36.70716 24.68079 34796 ft 517 kts 156°
2026-05-05 18:26 36.67429 24.69964 34552 ft 517 kts 156°
2026-05-05 18:26 36.64149 24.71843 34305 ft 517 kts 156°
2026-05-05 18:27 36.60868 24.73724 33224 ft 523 kts 156°
2026-05-05 18:27 36.57531 24.75635 32101 ft 527 kts 156°
2026-05-05 18:27 36.54183 24.77549 30942 ft 532 kts 156°
2026-05-05 18:27 36.50861 24.79443 29754 ft 528 kts 156°
2026-05-05 18:28 36.44255 24.83214 27224 ft 513 kts 156°
2026-05-05 18:28 36.41023 24.85062 25886 ft 508 kts 156°
2026-05-05 18:28 36.37784 24.86908 24593 ft 515 kts 156°
2026-05-05 18:29 36.34509 24.88770 23264 ft 516 kts 156°
2026-05-05 18:29 36.31304 24.90593 22136 ft 507 kts 156°
2026-05-05 18:29 36.28137 24.92396 21258 ft 494 kts 156°
2026-05-05 18:29 36.25042 24.94156 20359 ft 483 kts 156°
2026-05-05 18:30 36.22017 24.95872 19489 ft 474 kts 156°
2026-05-05 18:30 36.19047 24.97553 18645 ft 465 kts 156°
2026-05-05 18:30 36.16127 24.99203 17769 ft 457 kts 156°
2026-05-05 18:30 36.13261 25.00821 16991 ft 446 kts 156°
2026-05-05 18:31 36.10453 25.02408 16232 ft 437 kts 155°
2026-05-05 18:31 36.07716 25.03954 15519 ft 429 kts 155°
2026-05-05 18:31 36.05045 25.05459 14838 ft 423 kts 155°
2026-05-05 18:31 36.02368 25.06971 14171 ft 423 kts 155°
2026-05-05 18:32 35.99686 25.08489 13455 ft 423 kts 154°
2026-05-05 18:32 35.97021 25.09995 12793 ft 419 kts 154°
2026-05-05 18:32 35.94378 25.11483 12152 ft 416 kts 155°
2026-05-05 18:32 35.91757 25.12953 11508 ft 412 kts 154°
2026-05-05 18:33 35.89174 25.14400 11256 ft 397 kts 154°
2026-05-05 18:33 35.86739 25.15762 11123 ft 376 kts 154°
2026-05-05 18:33 35.84445 25.17044 10996 ft 348 kts 154°
2026-05-05 18:33 35.82317 25.18231 10837 ft 327 kts 154°
2026-05-05 18:34 35.80270 25.19378 10644 ft 319 kts 154°
2026-05-05 18:34 35.78263 25.20505 10415 ft 314 kts 154°
2026-05-05 18:34 35.76278 25.21621 10175 ft 312 kts 154°
2026-05-05 18:34 35.74304 25.22727 9938 ft 310 kts 154°
2026-05-05 18:35 35.72366 25.23810 9815 ft 310 kts 154°
2026-05-05 18:35 35.70403 25.24907 9670 ft 309 kts 154°
2026-05-05 18:35 35.68447 25.26001 9547 ft 308 kts 154°
2026-05-05 18:35 35.66493 25.27095 9210 ft 310 kts 154°
2026-05-05 18:36 35.64530 25.28192 8789 ft 309 kts 154°
2026-05-05 18:36 35.62589 25.29274 8249 ft 305 kts 154°
2026-05-05 18:36 35.60672 25.30346 7730 ft 299 kts 154°
2026-05-05 18:36 35.58783 25.31401 7243 ft 296 kts 154°
2026-05-05 18:37 35.56933 25.32431 6758 ft 294 kts 154°
2026-05-05 18:37 35.55079 25.33463 6282 ft 291 kts 154°
2026-05-05 18:37 35.53241 25.34485 5796 ft 289 kts 154°
2026-05-05 18:37 35.51395 25.35509 5322 ft 291 kts 155°
2026-05-05 18:38 35.49561 25.36526 4918 ft 288 kts 155°
2026-05-05 18:38 35.47743 25.37535 4385 ft 284 kts 156°
2026-05-05 18:38 35.45921 25.38410 3908 ft 279 kts 167°
2026-05-05 18:38 35.44033 25.38665 3596 ft 266 kts 185°
2026-05-05 18:39 35.42263 25.38346 3541 ft 248 kts 195°
2026-05-05 18:39 35.40613 25.37910 3445 ft 237 kts 195°
2026-05-05 18:39 35.39039 25.37497 3342 ft 226 kts 195°
2026-05-05 18:39 35.37530 25.37099 3237 ft 216 kts 195°
2026-05-05 18:40 35.36116 25.36725 3170 ft 205 kts 196°
2026-05-05 18:40 35.34767 25.36365 3068 ft 192 kts 198°
2026-05-05 18:40 35.33958 25.35968 2984 ft 179 kts 218°
2026-05-05 18:40 35.33183 25.34949 2908 ft 154 kts 245°
2026-05-05 18:41 35.32903 25.33754 2710 ft 140 kts 270°
2026-05-05 18:41 35.32970 25.32585 2514 ft 137 kts 277°
2026-05-05 18:41 35.33051 25.31430 2329 ft 136 kts 277°
2026-05-05 18:41 35.33128 25.30282 2140 ft 135 kts 276°
2026-05-05 18:42 35.33205 25.29139 1959 ft 135 kts 276°
2026-05-05 18:42 35.33283 25.27998 1745 ft 135 kts 277°
2026-05-05 18:42 35.33363 25.26848 1536 ft 135 kts 276°
2026-05-05 18:42 35.33443 25.25698 1336 ft 137 kts 275°
2026-05-05 18:43 35.33525 25.24539 1126 ft 136 kts 275°
2026-05-05 18:43 35.33604 25.23391 923 ft 136 kts 274°
2026-05-05 18:43 35.33681 25.22256 724 ft 135 kts 274°
2026-05-05 18:43 35.33760 25.21106 517 ft 136 kts 273°
2026-05-05 18:44 35.33841 25.19935 310 ft 137 kts 273°
2026-05-05 18:44 35.33923 25.18773 100 ft 136 kts 272°
2026-05-05 18:44 35.33981 25.17827 88 ft 73 kts 275°
2026-05-05 18:44 35.34014 25.17354 87 ft 46 kts 275°
2026-05-05 18:45 35.33974 25.17052 85 ft 0 kts 245°
2026-05-05 18:45 35.33974 25.17051 85 ft 0 kts 245°
2026-05-05 18:45 35.33972 25.17048 84 ft 3 kts 238°
2026-05-05 18:46 35.33944 25.17089 83 ft 8 kts 111°
2026-05-05 18:46 35.33934 25.17149 84 ft 7 kts 96°
2026-05-05 18:46 35.33931 25.17227 84 ft 9 kts 92°
2026-05-05 18:46 35.33930 25.17297 84 ft 8 kts 90°
2026-05-05 18:47 35.33918 25.17353 86 ft 6 kts 125°
2026-05-05 18:47 35.33882 25.17376 85 ft 6 kts 162°
2026-05-05 18:47 35.33851 25.17407 85 ft 6 kts 130°
2026-05-05 18:47 35.33836 25.17443 85 ft 0 kts 111°
2026-05-05 18:48 35.33843 25.17447 85 ft 5 kts 30°
2026-05-05 18:48 35.33862 25.17438 87 ft 2 kts 291°
2026-05-05 18:49 35.33861 25.17426 85 ft 1 kts 272°
2026-05-05 18:49 35.33861 25.17421 85 ft 0 kts 272°
2026-05-05 18:49 35.33861 25.17420 85 ft 0 kts 272°